Overview Statistics Trail Chart Weather Telemetry Raw packets
 

This is the latest recevied weather packets stored in our database for station/object DL0BB-10. If no packets are shown the sender has not sent any weather packets the latest 10 day(s).

<< 31 32 33 34 35 36 37 >>
Time Temp. Humidity Pressure Rain* Wind** Luminosity Snow
1787969685 25.56° C 43% 1017.4 hPa - - - -
1787968785 26.11° C 42% 1017.4 hPa - - - -
1787967885 26.11° C 42% 1017.4 hPa - - - -
1787966985 25.56° C 44% 1017.5 hPa - - - -
1787966085 25.56° C 44% 1017.4 hPa - - - -
1787965185 26.11° C 42% 1017.5 hPa - - - -
1787964284 26.11° C 43% 1017.4 hPa - - - -
1787963384 25.56° C 44% 1017.6 hPa - - - -
1787962484 26.11° C 43% 1017.6 hPa - - - -
1787961584 26.67° C 42% 1017.6 hPa - - - -
1787960684 26.11° C 44% 1017.8 hPa - - - -
1787959783 25.56° C 44% 1017.6 hPa - - - -
1787958884 26.11° C 43% 1017.5 hPa - - - -
1787957983 26.67° C 42% 1017.5 hPa - - - -
1787957083 26.11° C 44% 1017.5 hPa - - - -
1787956183 26.11° C 44% 1017.4 hPa - - - -
1787955283 26.11° C 43% 1017.2 hPa - - - -
1787954384 27.22° C 42% 1017.3 hPa - - - -
1787953483 26.11° C 44% 1017.2 hPa - - - -
1787952583 26.11° C 44% 1017.1 hPa - - - -
1787950775 27.22° C 42% 1016.5 hPa - - - -
1787949879 26.11° C 44% 1016.5 hPa - - - -
1787948979 26.67° C 44% 1016.2 hPa - - - -
1787948079 27.22° C 43% 1015.9 hPa - - - -
1787947179 27.22° C 42% 1015.6 hPa - - - -

* Rain since midnight (hover to see other rain measurements)
** Current wind speed in m/s (hover to see current wind gust speed)